Weather History for KRCE - February, 2013

Change the Weather History Date:

Sunday, February 17, 2013

  Actual Average (KOKC) Record (KOKC)
Temperature  
Mean Temperature 52 °F 44 °F  
Max Temperature 68 °F 55 °F 80 °F (2011)
Min Temperature 35 °F 33 °F 5 °F (1900)
Degree Days  
Heating Degree Days 14 21  
Month to date heating degree days 386  
Since 1 July heating degree days 2539  
Growing Degree Days 2 (Base 50)    
Moisture  
Dew Point 29 °F    
Average Humidity 46    
Maximum Humidity 75    
Minimum Humidity 23    
Precipitation  
Precipitation 0.00 in 0.06 in 0.88 in (1961)
Month to date precipitation 0.90  
Year to date precipitation 2.29  
Snow  
Snow 0.00 in 0.10 in 3.80 in (1940)
Month to date snowfall 1.0  
Since 1 July snowfall 6.3  
Snow Depth -    
Sea Level Pressure  
Sea Level Pressure 29.88 in    
Wind  
Wind Speed 14 mph (South)    
Max Wind Speed 28 mph    
Max Gust Speed 39 mph    
Visibility 10 miles    
Events      
T = Trace of Precipitation, MM = Missing Value Source: NWS Daily Summary

Daily Weather History Graph

Daily Weather History Graph

Search for Another Location

Airport or City:

Trip Planner

Search our weather history database for the weather conditions in past years. The results will help you decide how hot, cold, wet, or windy it might be!

Date:

Astronomy

Feb. 17, 2013 Rise Set
Actual Time 7:15 AM CST 6:15 PM CST
Civil Twilight 6:49 AM CST 6:41 PM CST
Nautical Twilight 6:19 AM CST 7:11 PM CST
Astronomical Twilight 5:50 AM CST 7:40 PM CST
Moon 11:25 AM CST (2/17) 12:56 AM CST (2/17)
Length of Visible Light 11h 52m
Length of Day
11h 00m
Waxing Crescent, 49% of the Moon is Illuminated
Feb 17
Waxing Crescent
Feb 17
First Quarter
Feb 25
Full
Mar 4
Last Quarter
Mar 11
New

Hourly Weather History & Observations

Time (CST) Temp. Windchill Dew Point Humidity Pressure Visibility Wind Dir Wind Speed Gust Speed Precip Events Conditions
12:15 AM 37.4 °F 31.4 °F 28.4 °F 70% 30.06 in 10.0 mi SSW 8.1 mph - N/A   Clear
12:35 AM 37.4 °F 30.8 °F 28.4 °F 70% 30.06 in 10.0 mi SSW 9.2 mph - N/A   Clear
12:55 AM 37.4 °F 30.8 °F 28.4 °F 70% 30.06 in 10.0 mi SSW 9.2 mph - N/A   Clear
1:15 AM 37.4 °F 30.8 °F 28.4 °F 70% 30.05 in 10.0 mi SSW 9.2 mph - N/A   Clear
1:35 AM 37.4 °F 30.3 °F 28.4 °F 70% 30.05 in 10.0 mi SSW 10.4 mph - N/A   Clear
1:55 AM 37.4 °F 30.3 °F 26.6 °F 65% 30.05 in 10.0 mi SSW 10.4 mph - N/A   Clear
2:15 AM 39.2 °F 31.6 °F 26.6 °F 61% 30.04 in 10.0 mi SSW 12.7 mph - N/A   Clear
2:35 AM 39.2 °F 32.5 °F 26.6 °F 61% 30.03 in 10.0 mi SSW 10.4 mph - N/A   Clear
2:55 AM 37.4 °F 30.8 °F 26.6 °F 65% 30.03 in 10.0 mi SSW 9.2 mph - N/A   Clear
3:15 AM 37.4 °F 30.3 °F 26.6 °F 65% 30.02 in 10.0 mi SSW 10.4 mph - N/A   Clear
3:35 AM 37.4 °F 30.3 °F 26.6 °F 65% 30.01 in 10.0 mi South 10.4 mph - N/A   Clear
3:55 AM 37.4 °F 30.8 °F 26.6 °F 65% 30.01 in 10.0 mi South 9.2 mph - N/A   Clear
4:15 AM 37.4 °F 30.8 °F 26.6 °F 65% 30.00 in 10.0 mi South 9.2 mph - N/A   Clear
4:35 AM 37.4 °F 30.3 °F 26.6 °F 65% 30.00 in 10.0 mi South 10.4 mph - N/A   Clear
4:55 AM 35.6 °F 28.0 °F 26.6 °F 70% 30.00 in 10.0 mi South 10.4 mph - N/A   Clear
5:15 AM 35.6 °F 28.0 °F 28.4 °F 75% 30.00 in 10.0 mi South 10.4 mph - N/A   Clear
5:55 AM 35.6 °F 27.5 °F 28.4 °F 75% 30.00 in 10.0 mi South 11.5 mph - N/A   Clear
6:15 AM 35.6 °F 28.0 °F 28.4 °F 75% 30.00 in 10.0 mi South 10.4 mph - N/A   Clear
6:55 AM 35.6 °F - 28.4 °F 75% 29.98 in 10.0 mi North - - N/A   Clear
7:15 AM 35.6 °F - 28.4 °F 75% 29.98 in 10.0 mi North - - N/A   Clear
7:35 AM 35.6 °F - 28.4 °F 75% 29.98 in 10.0 mi North - - N/A   Clear
7:55 AM 37.4 °F - 28.4 °F 70% 29.98 in 10.0 mi North - - N/A   Clear
8:15 AM 39.2 °F 32.5 °F 28.4 °F 65% 29.98 in 10.0 mi South 10.4 mph - N/A   Clear
8:35 AM 41.0 °F 33.9 °F 28.4 °F 61% 29.98 in 10.0 mi South 12.7 mph - N/A   Clear
8:55 AM 42.8 °F 36.2 °F 28.4 °F 57% 29.99 in 10.0 mi South 12.7 mph - N/A   Clear
9:15 AM 46.4 °F 40.7 °F 28.4 °F 50% 29.99 in 10.0 mi SSW 12.7 mph 18.4 mph N/A   Clear
9:35 AM 46.4 °F 40.1 °F 30.2 °F 53% 29.98 in 10.0 mi South 15.0 mph 19.6 mph N/A   Clear
9:55 AM 48.2 °F - 30.2 °F 50% 29.98 in 10.0 mi SSW 10.4 mph - N/A   Clear
10:15 AM 50.0 °F - 30.2 °F 47% 29.97 in 10.0 mi SSW 15.0 mph 19.6 mph N/A   Clear
10:35 AM 53.6 °F - 32.0 °F 44% 29.97 in 10.0 mi SSW 15.0 mph - N/A   Clear
10:55 AM 53.6 °F - 32.0 °F 44% 29.96 in 10.0 mi South 18.4 mph 21.9 mph N/A   Clear
11:15 AM 55.4 °F - 32.0 °F 41% 29.95 in 10.0 mi South 13.8 mph 21.9 mph N/A   Clear
11:55 AM 59.0 °F - 32.0 °F 36% 29.93 in 10.0 mi SSW 18.4 mph 24.2 mph N/A   Clear
12:15 PM 60.8 °F - 32.0 °F 34% 29.91 in 10.0 mi South 20.7 mph 25.3 mph N/A   Clear
12:55 PM 62.6 °F - 32.0 °F 32% 29.89 in 10.0 mi South 17.3 mph 25.3 mph N/A   Clear
1:15 PM 64.4 °F - 32.0 °F 30% 29.87 in 10.0 mi SSW 19.6 mph 27.6 mph N/A   Clear
1:35 PM 64.4 °F - 32.0 °F 30% 29.86 in 10.0 mi SSW 23.0 mph 28.8 mph N/A   Clear
1:55 PM 66.2 °F - 32.0 °F 28% 29.85 in 10.0 mi South 25.3 mph 31.1 mph N/A   Clear
2:15 PM 66.2 °F - 30.2 °F 26% 29.83 in 10.0 mi South 21.9 mph 31.1 mph N/A   Clear
2:35 PM 66.2 °F - 32.0 °F 28% 29.82 in 10.0 mi South 20.7 mph 31.1 mph N/A   Clear
2:55 PM 68.0 °F - 30.2 °F 24% 29.81 in 10.0 mi South 24.2 mph 32.2 mph N/A   Clear
3:15 PM 68.0 °F - 30.2 °F 24% 29.79 in 10.0 mi South 25.3 mph 32.2 mph N/A   Clear
3:35 PM 68.0 °F - 28.4 °F 23% 29.78 in 10.0 mi South 27.6 mph 36.8 mph N/A   Clear
3:55 PM 68.0 °F - 30.2 °F 24% 29.78 in 10.0 mi South 26.5 mph 36.8 mph N/A   Clear
4:15 PM 68.0 °F - 28.4 °F 23% 29.77 in 10.0 mi SSW 24.2 mph 29.9 mph N/A   Clear
4:35 PM 68.0 °F - 28.4 °F 23% 29.77 in 10.0 mi South 26.5 mph 33.4 mph N/A   Clear
4:55 PM 68.0 °F - 28.4 °F 23% 29.77 in 10.0 mi SSW 20.7 mph 29.9 mph N/A   Clear
5:15 PM 66.2 °F - 28.4 °F 24% 29.76 in 10.0 mi South 18.4 mph 29.9 mph N/A   Clear
5:35 PM 66.2 °F - 26.6 °F 23% 29.75 in 10.0 mi South 23.0 mph 28.8 mph N/A   Clear
5:55 PM 64.4 °F - 28.4 °F 26% 29.75 in 10.0 mi South 17.3 mph - N/A   Clear
6:15 PM 62.6 °F - 26.6 °F 26% 29.75 in 10.0 mi South 17.3 mph 21.9 mph N/A   Clear
6:35 PM 60.8 °F - 26.6 °F 27% 29.75 in 10.0 mi South 18.4 mph 23.0 mph N/A   Clear
6:55 PM 60.8 °F - 26.6 °F 27% 29.75 in 10.0 mi South 17.3 mph 24.2 mph N/A   Clear
7:15 PM 59.0 °F - 26.6 °F 29% 29.74 in 10.0 mi South 17.3 mph - N/A   Clear
7:35 PM 59.0 °F - 26.6 °F 29% 29.74 in 10.0 mi South 18.4 mph 26.5 mph N/A   Clear
7:55 PM 59.0 °F - 26.6 °F 29% 29.74 in 10.0 mi South 18.4 mph 26.5 mph N/A   Clear
8:15 PM 59.0 °F - 26.6 °F 29% 29.73 in 10.0 mi South 19.6 mph 27.6 mph N/A   Clear
8:35 PM 59.0 °F - 26.6 °F 29% 29.73 in 10.0 mi South 20.7 mph 29.9 mph N/A   Clear
8:55 PM 57.2 °F - 26.6 °F 31% 29.73 in 10.0 mi South 21.9 mph 27.6 mph N/A   Clear
9:15 PM 57.2 °F - 26.6 °F 31% 29.73 in 10.0 mi South 21.9 mph 29.9 mph N/A   Clear
9:35 PM 57.2 °F - 26.6 °F 31% 29.73 in 10.0 mi South 24.2 mph 32.2 mph N/A   Clear
9:55 PM 57.2 °F - 26.6 °F 31% 29.73 in 10.0 mi South 25.3 mph 34.5 mph N/A   Clear
10:15 PM 55.4 °F - 28.4 °F 36% 29.73 in 10.0 mi South 20.7 mph 28.8 mph N/A   Clear
10:35 PM 55.4 °F - 28.4 °F 36% 29.73 in 10.0 mi South 23.0 mph 32.2 mph N/A   Clear
10:55 PM 55.4 °F - 32.0 °F 41% 29.72 in 10.0 mi South 24.2 mph 33.4 mph N/A   Clear
11:15 PM 53.6 °F - 32.0 °F 44% 29.73 in 10.0 mi South 25.3 mph 38.0 mph N/A   Clear
11:35 PM 53.6 °F - 32.0 °F 44% 29.73 in 10.0 mi South 23.0 mph 39.1 mph N/A   Clear
11:55 PM 53.6 °F - 32.0 °F 44% 29.72 in 10.0 mi South 23.0 mph 32.2 mph N/A   Clear